Location: Neuvy Saint Sepulchre
(46.5953°N, 1.8122°E)
Time: 09:34:29
(UTC+02:00)

ISS - Pass Details

Date: 14 July 2021
Orbit: 419 x 421 km, 51.6° (Epoch: 04 August)

Event Time Altitude Azimuth Distance (km) Brightness Sun altitude
Rises 23:40:06 0° 241° (WSW) 2,361 0.1 -15.0°
Reaches altitude 10° 23:42:11 10° 241° (WSW) 1,500 -0.9 -15.2°
Maximum altitude 23:45:34 86° 152° (SSE) 426 -3.9 -15.5°
Drops below altitude 10° 23:48:57 10° 64° (ENE) 1,505 -1.0 -15.8°
Sets 23:51:03 0° 64° (ENE) 2,371 0.0 -16.0°
